Weather History for Ft Lauderdale, FL

Change the Weather History Date:

Wednesday, December 14, 2011

  Actual Average Record
Temperature  
Mean Temperature 73 °F 71 °F  
Max Temperature 77 °F 78 °F 86 °F (1922)
Min Temperature 68 °F 64 °F 34 °F (1962)
Degree Days  
Heating Degree Days 0 1  
Month to date heating degree days 0 9  
Since 1 July heating degree days 0 11  
Cooling Degree Days 8 7  
Month to date cooling degree days 131 111  
Year to date cooling degree days 4723 4624  
Growing Degree Days 24 (Base 50)    
Moisture  
Dew Point 59 °F    
Average Humidity 62    
Maximum Humidity 73    
Minimum Humidity 50    
Precipitation  
Precipitation T in 0.09 in 2.01 in (1974)
Month to date precipitation 1.32 1.20  
Year to date precipitation 40.61 60.92  
Snow  
Snow 0.00 in - - ()
Month to date snowfall 0.0  
Since 1 July snowfall 0.0  
Snow Depth 0.00 in    
Sea Level Pressure  
Sea Level Pressure 30.19 in    
Wind  
Wind Speed 17 mph (ENE)    
Max Wind Speed 23 mph    
Max Gust Speed 30 mph    
Visibility 10 miles    
Events      
T = Trace of Precipitation, MM = Missing Value Source: NWS Daily Summary

Daily Weather History Graph

Daily Weather History Graph

Search for Another Location

Airport:

Trip Planner

Search our weather history database for the weather conditions in past years. The results will help you decide how hot, cold, wet, or windy it might be!

Date:

Astronomy

Dec. 14, 2011 Rise Set
Actual Time 6:59 AM EST 5:30 PM EST
Civil Twilight 6:34 AM EST 5:56 PM EST
Nautical Twilight 6:05 AM EST 6:24 PM EST
Astronomical Twilight 5:37 AM EST 6:53 PM EST
Moon 9:31 PM EST (12/14) 9:58 AM EST (12/14)
Length of Visible Light 11h 22m
Length of Day
10h 31m
Waning Gibbous, 83% of the Moon is Illuminated
Dec 14
Waning Gibbous
Dec 17
Last Quarter
Dec 24
New
Jan 1
First Quarter
Jan 9
Full

Hourly Weather History & Observations

Time (EST) Temp. Dew Point Humidity Pressure Visibility Wind Dir Wind Speed Gust Speed Precip Events Conditions
12:53 AM 73.9 °F 61.0 °F 64% 30.19 in 10.0 mi ENE 15.0 mph - N/A   Mostly Cloudy
1:53 AM 72.0 °F 62.1 °F 71% 30.19 in 10.0 mi East 21.9 mph 29.9 mph 0.00 in   Mostly Cloudy
2:53 AM 73.0 °F 61.0 °F 66% 30.17 in 10.0 mi ENE 16.1 mph 23.0 mph N/A   Mostly Cloudy
3:53 AM 73.0 °F 62.1 °F 68% 30.17 in 10.0 mi ENE 12.7 mph 19.6 mph N/A   Scattered Clouds
4:53 AM 72.0 °F 63.0 °F 73% 30.17 in 10.0 mi East 16.1 mph 24.2 mph 0.00 in   Mostly Cloudy
5:53 AM 73.0 °F 62.1 °F 68% 30.18 in 10.0 mi East 15.0 mph - N/A   Mostly Cloudy
6:53 AM 72.0 °F 63.0 °F 73% 30.19 in 10.0 mi ENE 12.7 mph - 0.00 in   Mostly Cloudy
7:53 AM 72.0 °F 63.0 °F 73% 30.20 in 10.0 mi East 18.4 mph 26.5 mph 0.00 in   Mostly Cloudy
8:53 AM 73.9 °F 64.0 °F 71% 30.21 in 10.0 mi East 18.4 mph 25.3 mph N/A   Mostly Cloudy
9:53 AM 75.0 °F 60.1 °F 60% 30.22 in 10.0 mi ENE 20.7 mph 26.5 mph 0.00 in   Mostly Cloudy
10:53 AM 77.0 °F 60.1 °F 56% 30.22 in 10.0 mi ENE 18.4 mph 24.2 mph N/A   Scattered Clouds
11:53 AM 77.0 °F 59.0 °F 54% 30.20 in 10.0 mi ENE 17.3 mph 26.5 mph N/A   Mostly Cloudy
12:53 PM 75.0 °F 57.9 °F 55% 30.18 in 10.0 mi ENE 15.0 mph 24.2 mph N/A   Scattered Clouds
1:53 PM 75.9 °F 55.9 °F 50% 30.16 in 10.0 mi ENE 17.3 mph 25.3 mph N/A   Scattered Clouds
2:53 PM 75.9 °F 55.9 °F 50% 30.16 in 10.0 mi ENE 21.9 mph 26.5 mph N/A   Scattered Clouds
3:53 PM 75.0 °F 55.9 °F 51% 30.16 in 10.0 mi ENE 18.4 mph 24.2 mph N/A   Scattered Clouds
4:53 PM 73.9 °F 55.0 °F 52% 30.16 in 10.0 mi ENE 18.4 mph 23.0 mph N/A   Scattered Clouds
5:53 PM 73.0 °F 55.0 °F 53% 30.17 in 10.0 mi ENE 11.5 mph 24.2 mph N/A   Scattered Clouds
6:53 PM 73.0 °F 57.0 °F 57% 30.19 in 10.0 mi East 15.0 mph - N/A   Scattered Clouds
7:53 PM 73.0 °F 57.0 °F 57% 30.20 in 10.0 mi East 15.0 mph 23.0 mph N/A   Scattered Clouds
8:53 PM 72.0 °F 55.0 °F 55% 30.21 in 10.0 mi East 13.8 mph 26.5 mph N/A   Scattered Clouds
9:53 PM 72.0 °F 60.1 °F 66% 30.22 in 10.0 mi East 18.4 mph - N/A   Mostly Cloudy
10:53 PM 72.0 °F 55.9 °F 57% 30.22 in 10.0 mi East 17.3 mph 24.2 mph N/A   Scattered Clouds
11:53 PM 72.0 °F 57.9 °F 61% 30.20 in 10.0 mi East 15.0 mph - N/A   Partly Cloudy